Таза

Россия / Республика Бурятия     54°52′32″N   111°09′35″E
темп.,
°C
ветер,
м/с
пор.,
м/с
влажн.,
%
обл.,
%
осадки,
мм/ч
давл.,
гПа
погр.,
м
16 мая, вс
вс1623:00+2ссв1153100 0.0 101015
02:000ююв116570 0.0 101010
05:00−1ююв237395 0.0 100988
08:000ююв1296100 0.9 1008202
11:00+2юв2398100 2.7 1007163
14:00+5ю228458 2.8 1006579
17:00+8сз483622 0.3 10052335
20:00+3ссв226072 0.3 100834
17 мая, пн
пн1723:000с227187 0.0 100919
02:00−2св008298 0.0 100910
05:00−3св1186100 0.0 100714
08:00+3ю1172100 0.1 1005463
11:00+7з034298 0.2 10021766
14:00+8сз562970 0.4 10022499
17:00+7сз492734 0.0 10022582
20:00+3ссз33454 0.0 100376
18 мая, вт
вт1823:00−2с237259 0.4 100748
02:00−3ссз22603 0.4 100834
05:00−4с22622 0.0 100934
08:00+1сз473086 0.0 10092156
11:00+3сз5727100 0.0 10082743
14:00+4зсз4726100 0.0 10072964
17:00+6сз392578 0.0 10042692
20:00+2з113981 0.0 100412
19 мая, ср
ср1923:00−1зсз016192 0.0 100511
02:00−3св11745 0.0 100510
05:00−4ссв11785 0.0 100514
08:00+3ю115144 0.0 1002688
11:00+7ююз3533100 0.0 10002283
14:00+9зсз4623100 0.0 9982775
17:00+8ссз6728100 0.0 10002511
20:00+4с353719 0.0 1003215
20 мая, чт
чт2023:000ссв224810 0.0 100422
02:00−2ссв33555 0.0 100553
05:00−2с3460100 0.0 100690
08:00+4с3341100 0.0 1005860
11:00+6с1230100 0.1 10051228
14:00+12ю0219100 0.1 10021949
17:00+11всв242678 0.0 10001652
20:00+8св2336100 0.0 99960